ONEWEB-0145, 47291

Orbit data source: Space-Track

ONEWEB-0145, 47291 is a payload satellite owned by One Web (UK) in LEO that was launched on Fri, 18 Dec 2020 UTC via a SOYUZ-2-1B launch vehicle from the Vostochny Cosmodrome (VOSTO). Payload-class satellites include a variety of spacecraft equipped with specific instruments for various scientific and technological missions. These include communications satellites like Starlink; space stations such as the ISS; scientific satellites like the Hubble; Earth observation satellites from companies like Planet Labs, Umbra, and HawkEye 360; GPS; miniature CubeSats for education and research; and military/defense satellites.

Loading next visibility...
Identifier
47291, 2020-100AK
Orbit
LEO
Country
Flag of UKUK
Related business
Manufacturer
One Web
Mission
Operational Commercial Communications
Bus & Motor
ARROW, Unknown motor
Mass
148 kg wet, ~140 kg dry
Launch date (UTC)
2020-12-18 (5 years ago)
Launch vehicle
SOYUZ-2-1B
Launch site
Vostochny Cosmodrome (VOSTO)
Object type
Payload
Rocket body
Debris
Shape & HBR
Trap Box + 2 Pan, 6.7 m
Radar Cross Section
3.464 m², Large (>1 m²)

Expand to show TLE details & history
Last TLE update: 12 hours ago

TLE from 12 hours ago
0 ONEWEB-0145
1 47291U 20100AK  26095.45452525 -.00000171  00000-0 -51084-3 0  9992
2 47291  87.9010   5.1170 0001801  75.3248 284.8080 13.12443660255229
Epoch: 2026-04-05T10:54Z
TLE epoch observation values (Epoch: 2026-04-05T10:54:30.981Z)
Latitude
-0.00004°
Longitude
7.7282°
Altitude
1,216.262 km
Speed
7.246 km/s
True Right ascension
00h 20m 28s
True Declination
0° 00' 00"
Sunlit
Object was in daylight at epoch
Visualization orbit readout
Latitude
Unknown
Longitude
Unknown
Altitude
Unknown
Speed
Unknown
Apparent Right ascension
Unknown
Apparent Declination
Unknown
Sunlit
N/A
Visualization observer readout
Local Sidereal Time
04:47:47
Azimuth
Unknown
Elevation
Unknown
Doppler factor
Unknown
Orbital elements
Apogee altitude
1,212.204 km
Perigee altitude
1,209.471 km
Semi-major axis
7,588.974 km
Eccentricity
0.00018
Inclination
87.901°
RAAN
5.117°
Arg. of periapsis
75.3248°
True anomaly
284.78805°
Mean anomaly
284.808°
Eccentric anomaly
284.79802°
Mean motion
3.28298 °/min
Orbital period
109.66 mins
BSTAR
-0.00051084
Loading maneuver chart data...
Computing Atmospheric mass density...
Loading historical data...
Loading historical data...
Loading historical data...
Loading historical data...
Loading historical data...
Loading historical data...
Loading historical data...

Documentation

Showing up to 5 results
|